When you browse on this site, cookies collect data to enhance your experience and personalize the content and advertising you see.
Visit our Privacy Policy to learn more. By continuing to use the site, you agree to this use of cookies and data.

Météo par heure à Wuxue

Ce jour, 9 Juillet, Jeudi

Heure Température Précipitation Vent Pression Humidité
00:00 +25°C° 0 mm 1 m/s 748 mmHg 96%
01:00 +25°C° 0 mm 1 m/s 748 mmHg 96%
02:00 +25°C° 0 mm 1 m/s 748 mmHg 96%
03:00 +25°C° 0 mm 1 m/s 748 mmHg 96%
04:00 +25°C° 0 mm 1 m/s 748 mmHg 96%
05:00 +25°C° 0 mm 1 m/s 747 mmHg 96%
06:00 +26°C° 0 mm 1 m/s 747 mmHg 94%
07:00 +27°C° 0 mm 1 m/s 747 mmHg 91%
08:00 +28°C° 0 mm 1 m/s 747 mmHg 92%
09:00 +29°C° 0.2 mm 1 m/s 747 mmHg 87%
10:00 +30°C° 0.2 mm 1 m/s 747 mmHg 82%
11:00 +31°C° 0.2 mm 1 m/s 747 mmHg 77%
12:00 +32°C° 0.2 mm 2 m/s 747 mmHg 74%
13:00 +32°C° 0.2 mm 2 m/s 746 mmHg 72%
14:00 +34°C° 0.2 mm 2 m/s 746 mmHg 70%
15:00 +34°C° 0.3 mm 2 m/s 746 mmHg 70%
16:00 +34°C° 0.3 mm 2 m/s 746 mmHg 71%
17:00 +34°C° 0.3 mm 2 m/s 745 mmHg 71%
18:00 +31°C° 0.2 mm 2 m/s 746 mmHg 76%
19:00 +30°C° 0.2 mm 2 m/s 746 mmHg 82%
20:00 +28°C° 0.2 mm 2 m/s 747 mmHg 87%
21:00 +28°C° 0 mm 2 m/s 747 mmHg 89%
22:00 +28°C° 0 mm 1 m/s 747 mmHg 91%
23:00 +27°C° 0 mm 1 m/s 748 mmHg 92%

Demain, 10 Juillet, Vendredi

Heure Température Précipitation Vent Pression Humidité
00:00 +27°C° 0 mm 1 m/s 747 mmHg 93%
01:00 +27°C° 0 mm 1 m/s 747 mmHg 93%
02:00 +26°C° 0 mm 1 m/s 747 mmHg 94%
03:00 +26°C° 0 mm 1 m/s 747 mmHg 94%
04:00 +26°C° 0 mm 1 m/s 747 mmHg 95%
05:00 +26°C° 0 mm 2 m/s 747 mmHg 96%
06:00 +27°C° 0 mm 2 m/s 748 mmHg 94%
07:00 +27°C° 0 mm 2 m/s 748 mmHg 93%
08:00 +28°C° 0 mm 2 m/s 748 mmHg 91%
09:00 +29°C° 0.3 mm 3 m/s 748 mmHg 87%
10:00 +31°C° 0.3 mm 3 m/s 748 mmHg 83%
11:00 +33°C° 0.3 mm 3 m/s 749 mmHg 79%
12:00 +33°C° 1 mm 3 m/s 748 mmHg 79%
13:00 +33°C° 1 mm 3 m/s 748 mmHg 79%
14:00 +34°C° 1 mm 3 m/s 748 mmHg 78%
15:00 +33°C° 1.6 mm 3 m/s 747 mmHg 82%
16:00 +31°C° 1.6 mm 3 m/s 747 mmHg 86%
17:00 +30°C° 1.6 mm 3 m/s 747 mmHg 89%
18:00 +29°C° 8.2 mm 2 m/s 747 mmHg 92%
19:00 +28°C° 8.2 mm 2 m/s 747 mmHg 95%
20:00 +28°C° 8.2 mm 1 m/s 747 mmHg 98%
21:00 +27°C° 8.2 mm 2 m/s 748 mmHg 98%
22:00 +27°C° 8.2 mm 2 m/s 748 mmHg 97%
23:00 +27°C° 8.2 mm 2 m/s 749 mmHg 97%

Après-demain, 11 Juillet, Samedi

Heure Température Précipitation Vent Pression Humidité
00:00 +27°C° 1.3 mm 2 m/s 748 mmHg 97%
01:00 +27°C° 1.3 mm 2 m/s 748 mmHg 97%
02:00 +27°C° 1.3 mm 2 m/s 747 mmHg 98%
03:00 +27°C° 0.6 mm 2 m/s 747 mmHg 98%
04:00 +27°C° 0.6 mm 2 m/s 747 mmHg 98%
05:00 +27°C° 0.6 mm 2 m/s 747 mmHg 97%
06:00 +27°C° 0.4 mm 3 m/s 748 mmHg 97%
07:00 +27°C° 0.4 mm 3 m/s 748 mmHg 96%
08:00 +27°C° 0.4 mm 3 m/s 748 mmHg 95%
09:00 +27°C° 0.2 mm 4 m/s 748 mmHg 94%
10:00 +28°C° 0.2 mm 4 m/s 748 mmHg 94%
11:00 +28°C° 0.2 mm 4 m/s 748 mmHg 93%
12:00 +28°C° 1.4 mm 3 m/s 748 mmHg 93%
13:00 +28°C° 1.4 mm 3 m/s 748 mmHg 94%
14:00 +28°C° 1.4 mm 2 m/s 747 mmHg 94%
15:00 +28°C° 0.8 mm 2 m/s 747 mmHg 93%
16:00 +29°C° 0.8 mm 3 m/s 747 mmHg 93%
17:00 +29°C° 0.8 mm 3 m/s 747 mmHg 92%
18:00 +29°C° 0.2 mm 3 m/s 747 mmHg 92%
19:00 +29°C° 0.2 mm 3 m/s 747 mmHg 91%
20:00 +28°C° 0.2 mm 3 m/s 747 mmHg 91%
21:00 +29°C° 0.1 mm 3 m/s 747 mmHg 90%
22:00 +29°C° 0.1 mm 3 m/s 747 mmHg 88%
23:00 +29°C° 0.1 mm 3 m/s 748 mmHg 87%

12 Juillet, Dimanche

Heure Température Précipitation Vent Pression Humidité
00:00 +29°C° 0 mm 3 m/s 747 mmHg 86%
01:00 +29°C° 0 mm 3 m/s 747 mmHg 84%
02:00 +29°C° 0 mm 3 m/s 747 mmHg 83%
03:00 +28°C° 0.4 mm 3 m/s 747 mmHg 85%
04:00 +28°C° 0.4 mm 3 m/s 747 mmHg 87%
05:00 +27°C° 0.4 mm 3 m/s 747 mmHg 89%
06:00 +28°C° 0.1 mm 3 m/s 747 mmHg 89%
07:00 +28°C° 0.1 mm 3 m/s 748 mmHg 89%
08:00 +29°C° 0.1 mm 3 m/s 748 mmHg 88%
09:00 +30°C° 0 mm 3 m/s 748 mmHg 86%
10:00 +30°C° 0 mm 2 m/s 748 mmHg 83%
11:00 +31°C° 0 mm 2 m/s 749 mmHg 80%
12:00 +31°C° 0.2 mm 2 m/s 748 mmHg 80%
13:00 +32°C° 0.2 mm 2 m/s 748 mmHg 79%
14:00 +32°C° 0.2 mm 2 m/s 748 mmHg 78%
15:00 +32°C° 0.7 mm 2 m/s 748 mmHg 80%
16:00 +32°C° 0.7 mm 2 m/s 748 mmHg 81%
17:00 +33°C° 0.7 mm 3 m/s 748 mmHg 83%
18:00 +30°C° 0.8 mm 2 m/s 748 mmHg 87%
19:00 +28°C° 0.8 mm 2 m/s 749 mmHg 91%
20:00 +27°C° 0.8 mm 2 m/s 749 mmHg 95%
21:00 +26°C° 0.6 mm 2 m/s 749 mmHg 96%
22:00 +26°C° 0.6 mm 2 m/s 749 mmHg 96%
23:00 +25°C° 0.6 mm 2 m/s 750 mmHg 96%

13 Juillet, Lundi

Heure Température Précipitation Vent Pression Humidité
00:00 +25°C° 0.8 mm 2 m/s 750 mmHg 96%
01:00 +25°C° 0.8 mm 2 m/s 749 mmHg 97%
02:00 +25°C° 0.8 mm 2 m/s 749 mmHg 97%
03:00 +24°C° 0.7 mm 2 m/s 749 mmHg 96%
04:00 +24°C° 0.7 mm 2 m/s 750 mmHg 96%
05:00 +24°C° 0.7 mm 3 m/s 750 mmHg 96%
06:00 +24°C° 0.2 mm 3 m/s 750 mmHg 95%
07:00 +24°C° 0.2 mm 3 m/s 751 mmHg 95%
08:00 +24°C° 0.2 mm 3 m/s 751 mmHg 94%
09:00 +24°C° 0.3 mm 2 m/s 751 mmHg 94%
10:00 +24°C° 0.3 mm 2 m/s 752 mmHg 94%
11:00 +24°C° 0.3 mm 2 m/s 752 mmHg 94%
12:00 +24°C° 0.2 mm 2 m/s 752 mmHg 94%
13:00 +24°C° 0.2 mm 2 m/s 752 mmHg 93%
14:00 +24°C° 0.2 mm 1 m/s 752 mmHg 93%
15:00 +24°C° 0 mm 1 m/s 752 mmHg 93%
16:00 +24°C° 0 mm 1 m/s 751 mmHg 93%
17:00 +24°C° 0 mm 1 m/s 751 mmHg 93%
18:00 +24°C° 0.3 mm 1 m/s 752 mmHg 94%
19:00 +22°C° 0.3 mm 0 m/s 752 mmHg 94%
20:00 +22°C° 0.3 mm 0 m/s 752 mmHg 95%
21:00 +22°C° 0.1 mm 0 m/s 753 mmHg 94%
22:00 +22°C° 0.1 mm 0 m/s 753 mmHg 94%
23:00 +22°C° 0.1 mm 0 m/s 753 mmHg 94%

14 Juillet, Mardi

Heure Température Précipitation Vent Pression Humidité
00:00 +22°C° 0 mm 0 m/s 752 mmHg 94%
01:00 +22°C° 0 mm 0 m/s 752 mmHg 94%
02:00 +22°C° 0 mm 0 m/s 752 mmHg 94%
03:00 +24°C° 0.3 mm 1 m/s 751 mmHg 95%
04:00 +24°C° 0.3 mm 1 m/s 751 mmHg 96%
05:00 +24°C° 0.3 mm 1 m/s 751 mmHg 96%
06:00 +24°C° 1.1 mm 1 m/s 751 mmHg 97%
07:00 +24°C° 1.1 mm 1 m/s 751 mmHg 97%
08:00 +24°C° 1.1 mm 2 m/s 752 mmHg 97%
09:00 +24°C° 5.3 mm 2 m/s 752 mmHg 98%
10:00 +24°C° 5.3 mm 2 m/s 752 mmHg 98%
11:00 +24°C° 5.3 mm 2 m/s 752 mmHg 98%
12:00 +24°C° 8.9 mm 2 m/s 752 mmHg 98%
13:00 +24°C° 8.9 mm 2 m/s 751 mmHg 98%
14:00 +24°C° 8.9 mm 3 m/s 751 mmHg 98%
15:00 +24°C° 6 mm 3 m/s 751 mmHg 98%
16:00 +24°C° 6 mm 3 m/s 751 mmHg 98%
17:00 +22°C° 6 mm 3 m/s 751 mmHg 98%
18:00 +23°C° 0.9 mm 2 m/s 751 mmHg 98%
19:00 +23°C° 0.9 mm 2 m/s 751 mmHg 98%
20:00 +23°C° 0.9 mm 1 m/s 751 mmHg 98%
21:00 +23°C° 0.8 mm 1 m/s 751 mmHg 98%
22:00 +23°C° 0.8 mm 1 m/s 751 mmHg 98%
23:00 +23°C° 0.8 mm 1 m/s 751 mmHg 98%
Voir plus